Location: Borovka
(49.7741°N, 14.5280°E)
Time: 15:59:07
(UTC+00:00)

Nadezhda 4 Rocket - Pass Details

Date: 17 November 2025
Orbit: 948 x 991 km, 82.9° (Epoch: 12 December)

Event Time Altitude Azimuth Distance (km) Brightness Sun altitude
Rises 16:26:02 0° 354° (N) 3,709 6.9 -11.2°
Reaches altitude 10° 16:28:46 10° 2° (N) 2,752 6.2 -11.7°
Maximum altitude 16:34:40 40° 71° (ENE) 1,411 4.4 -12.6°
Drops below altitude 10° 16:40:27 10° 140° (SE) 2,709 6.1 -13.5°
Sets 16:43:07 0° 147° (SSE) 3,645 6.8 -13.9°
